FW6466 Weather Reports


time (UTC)temp
F
wind
direction
speed
knots
gust
knots
rain 1hr
in
rain 24hr
in
rain mn
in
humidity
%
barometer
mb
20260508132016 51 195 1.7 7.8 0.00 0.00 0.00 55 1011.0
20260508131019 51 343 3.5 9.6 0.00 0.00 0.00 56 1011.2
20260508130016 50 290 2.6 12.2 0.00 0.01 0.00 58 1011.2
20260508125036 49 330 3.5 9.6 0.00 0.01 0.00 59 1011.2
20260508124017 48 331 3.5 9.6 0.00 0.01 0.00 61 1011.1
20260508123016 48 302 4.3 8.7 0.00 0.01 0.00 62 1011.1
20260508122036 47 317 3.5 11.3 0.00 0.01 0.00 65 1011.1
20260508121017 45 326 4.3 8.7 0.00 0.01 0.00 68 1011.2
20260508120016 44 314 3.5 7.8 0.00 0.01 0.00 69 1011.2
20260508115016 44 291 3.5 10.4 0.00 0.01 0.00 71 1011.1
20260508114017 43 329 3.5 8.7 0.00 0.01 0.00 71 1011.0
20260508113016 43 335 1.7 5.2 0.00 0.01 0.00 71 1011.0
20260508112016 43 329 1.7 6.1 0.00 0.01 0.00 71 1011.0
20260508111017 42 322 1.7 7.0 0.00 0.01 0.00 71 1011.0
20260508110056 42 329 2.6 7.8 0.00 0.01 0.00 71 1010.9
20260508105017 42 304 2.6 7.0 0.00 0.01 0.00 70 1010.7
20260508104015 42 311 2.6 6.1 0.00 0.01 0.00 69 1010.6
20260508103016 43 323 1.7 5.2 0.00 0.01 0.00 67 1010.6
20260508102037 43 270 2.6 7.0 0.00 0.01 0.00 67 1010.6
20260508101016 43 295 3.5 8.7 0.00 0.01 0.00 66 1010.5
20260508100037 44 299 3.5 12.2 0.00 0.01 0.00 63 1010.4
20260508095016 44 309 4.3 14.8 0.00 0.01 0.00 59 1010.2
20260508094017 44 313 3.5 9.6 0.00 0.01 0.00 57 1010.2
20260508093017 44 315 3.5 7.8 0.00 0.01 0.00 56 1010.0
20260508092017 44 310 2.6 12.2 0.00 0.01 0.00 55 1009.9
20260508091017 44 318 3.5 7.0 0.00 0.01 0.00 54 1009.9
20260508090016 44 317 3.5 7.0 0.00 0.01 0.00 54 1009.9
20260508085320 44 0 2.6 3.5 0.00 0.01 0.00 53 1009.8
20260508084016 44 328 3.5 8.7 0.00 0.01 0.00 53 1009.7
20260508083016 44 324 2.6 7.8 0.00 0.01 0.00 53 1009.6
20260508082017 44 321 2.6 7.8 0.00 0.01 0.00 53 1009.5
20260508081016 44 319 3.5 8.7 0.00 0.01 0.00 53 1009.4
20260508080017 44 318 3.5 6.1 0.00 0.01 0.00 53 1009.4
20260508075016 43 329 2.6 9.6 0.00 0.01 0.00 53 1009.3
20260508074016 43 318 1.7 8.7 0.00 0.01 0.00 53 1009.3
20260508073017 43 311 2.6 5.2 0.00 0.01 0.00 54 1009.3
20260508072016 43 331 2.6 7.0 0.00 0.01 0.00 53 1009.3
20260508071017 43 313 2.6 8.7 0.00 0.01 0.00 53 1009.2
20260508070017 43 320 1.7 6.1 0.00 0.01 0.00 54 1009.2
20260508065016 43 326 1.7 5.2 0.00 0.01 0.00 55 1009.1
20260508064322 42 315 0.9 2.6 0.00 0.01 0.00 58 1009.1
20260508063517 42 326 0.9 4.3 0.00 0.01 0.00 57 1009.2
20260508062839 42 0 0.9 2.6 0.00 0.01 0.00 55 1009.2
20260508062016 42 329 0.9 3.5 0.00 0.01 0.00 56 1009.3
20260508061017 42 336 0.9 7.0 0.00 0.01 0.00 55 1009.4
20260508060017 42 305 1.7 5.2 0.00 0.01 0.00 56 1009.4
20260508055016 42 292 0.9 4.3 0.00 0.01 0.00 56 1009.5
20260508054320 41 45 0.9 0.9 0.00 0.01 0.00 57 1009.5
20260508053517 41 227 0.9 4.3 0.00 0.01 0.00 57 1009.5
20260508052623 41 90 0.9 4.3 0.00 0.01 0.00 56 1009.4
20260508052017 41 224 0.9 2.6 0.00 0.01 0.00 57 1009.4
20260508051015 41 225 0.9 1.7 0.00 0.01 0.00 55 1009.4
20260508050016 41 225 0.9 1.7 0.00 0.01 0.00 56 1009.4
20260508045017 42 225 0.0 0.9 0.00 0.01 0.00 53 1009.4
20260508044016 42 206 0.9 1.7 0.00 0.01 0.00 54 1009.3
20260508043017 42 202 1.7 3.5 0.00 0.01 0.00 53 1009.2
20260508042038 43 225 0.9 1.7 0.00 0.01 0.00 53 1009.1
20260508041016 43 225 1.7 1.7 0.00 0.01 0.00 52 1009.1
20260508040818 43 225 1.7 1.7 0.00 0.01 0.01 52 1009.1
20260508035016 44 223 0.9 1.7 0.00 0.01 0.01 52 1009.1
20260508034016 44 205 1.7 2.6 0.00 0.01 0.01 52 1009.2
20260508033037 45 193 1.7 4.3 0.00 0.01 0.01 51 1009.3
20260508032324 45 135 0.9 3.5 0.00 0.01 0.01 49 1009.3
20260508031018 45 207 0.9 2.6 0.00 0.01 0.01 52 1009.3
20260508030324 46 270 0.9 2.6 0.00 0.01 0.01 50 1009.3
20260508025517 46 213 0.9 2.6 0.00 0.01 0.01 50 1009.3
20260508024914 46 225 0.9 1.7 0.00 0.01 0.01 49 1009.3
20260508024017 46 282 0.9 2.6 0.00 0.01 0.01 48 1009.3
20260508023016 46 187 0.9 2.6 0.00 0.01 0.01 49 1009.2
20260508022017 46 226 1.7 3.5 0.00 0.01 0.01 47 1009.2
20260508021016 46 217 1.7 3.5 0.00 0.01 0.01 46 1009.1
20260508020017 46 206 1.7 2.6 0.00 0.01 0.01 46 1009.0
20260508015017 47 255 1.7 4.3 0.00 0.01 0.01 45 1008.9
20260508014016 47 293 1.7 5.2 0.00 0.01 0.01 44 1008.7
20260508013017 47 309 2.6 5.2 0.00 0.01 0.01 42 1008.7
20260508012017 47 299 1.7 6.1 0.00 0.01 0.01 45 1008.6
20260508011016 48 268 1.7 4.3 0.00 0.01 0.01 45 1008.5
20260508010016 49 210 0.9 3.5 0.00 0.01 0.01 44 1008.4
20260508005016 50 263 1.7 5.2 0.00 0.01 0.01 42 1008.2
20260508004057 50 264 1.7 7.0 0.00 0.02 0.01 41 1008.0
20260508003016 51 304 2.6 7.0 0.00 0.02 0.01 37 1008.0
20260508002407 52 270 1.7 2.6 0.00 0.02 0.01 37 1007.9
20260508001537 52 303 2.6 8.7 0.00 0.02 0.01 39 1007.8
20260508001113 53 270 1.7 5.2 0.00 0.02 0.01 35 1007.7
20260508000017 53 299 1.7 3.5 0.00 0.02 0.01 35 1007.7
20260507235544 54 270 3.5 4.3 0.00 0.02 0.01 34 1007.6
20260507234016 55 316 3.5 10.4 0.00 0.02 0.01 32 1007.5
20260507233037 57 319 4.3 11.3 0.00 0.02 0.01 31 1007.5
20260507232016 58 333 3.5 8.7 0.00 0.02 0.01 31 1007.5
20260507231016 59 323 4.3 11.3 0.00 0.02 0.01 32 1007.5
20260507230017 58 318 3.5 9.6 0.00 0.02 0.01 32 1007.5
20260507225126 58 315 3.5 6.1 0.00 0.02 0.01 33 1007.5
20260507224037 58 307 4.3 11.3 0.00 0.02 0.01 33 1007.4
20260507223015 57 305 5.2 12.2 0.00 0.02 0.01 33 1007.4
20260507222016 58 321 4.3 13.0 0.00 0.02 0.01 33 1007.5
20260507221017 58 312 6.1 21.7 0.00 0.02 0.01 32 1007.6
20260507220016 58 325 6.1 16.5 0.00 0.02 0.01 33 1007.6
20260507215319 58 0 5.2 5.2 0.00 0.02 0.01 33 1007.6
20260507214036 59 331 6.1 14.8 0.00 0.02 0.01 33 1007.6
20260507213017 59 309 5.2 13.0 0.00 0.02 0.01 32 1007.5
20260507212339 61 270 6.1 8.7 0.00 0.02 0.01 32 1007.6
20260507211017 61 312 7.0 13.0 0.00 0.02 0.01 31 1007.6
20260507210016 62 324 5.2 14.8 0.00 0.02 0.01 32 1007.6
20260507205016 63 314 4.3 15.6 0.00 0.02 0.01 32 1007.7
20260507204017 63 331 7.0 19.1 0.00 0.02 0.01 31 1007.7
20260507203018 62 326 3.5 13.9 0.00 0.02 0.01 33 1007.7
20260507202016 61 317 5.2 18.2 0.00 0.02 0.01 33 1007.8
20260507201017 60 322 5.2 17.4 0.00 0.02 0.01 34 1007.9
20260507200036 61 318 7.0 17.4 0.00 0.02 0.01 34 1008.0
20260507195017 61 314 6.1 13.9 0.00 0.02 0.01 34 1008.1
20260507194018 60 332 7.8 17.4 0.00 0.02 0.01 34 1008.1
20260507193017 58 325 7.0 17.4 0.00 0.02 0.01 36 1008.3
20260507192037 59 306 6.1 15.6 0.00 0.02 0.01 36 1008.4
20260507191324 59 0 6.1 10.4 0.00 0.02 0.01 36 1008.4
20260507190016 59 317 6.1 15.6 0.00 0.02 0.01 36 1008.6
20260507185017 60 287 6.1 13.9 0.00 0.02 0.01 36 1008.7
20260507184058 59 180 5.2 14.8 0.00 0.02 0.01 36 1008.8
20260507183018 58 320 7.0 13.9 0.00 0.02 0.01 37 1008.8
20260507182017 59 336 4.3 13.9 0.00 0.03 0.01 37 1009.0
20260507181058 59 315 6.1 9.6 0.00 0.03 0.01 37 1009.0
20260507180516 60 328 7.8 18.2 0.00 0.03 0.01 36 1009.0
20260507175516 60 319 6.1 14.8 0.00 0.04 0.01 37 1009.1
20260507174517 59 320 5.2 15.6 0.00 0.05 0.01 38 1009.2
20260507173929 59 0 3.5 7.8 0.00 0.05 0.01 40 1009.2
20260507172516 59 325 3.5 11.3 0.00 0.05 0.01 39 1009.2
20260507171556 58 270 5.2 12.2 0.00 0.06 0.01 38 1009.2
20260507170517 59 320 5.2 13.0 0.00 0.07 0.01 38 1009.3
20260507165516 60 330 6.1 13.0 0.00 0.08 0.01 38 1009.4
20260507164516 59 309 5.2 15.6 0.00 0.09 0.01 38 1009.5
20260507163517 60 313 6.1 12.2 0.00 0.09 0.01 38 1009.6
20260507162516 59 335 2.6 13.9 0.00 0.10 0.01 42 1009.7
20260507161821 58 23 5.2 12.2 0.00 0.12 0.01 39 1009.8
20260507160519 59 330 4.3 14.8 0.00 0.12 0.01 41 1009.9
20260507155519 58 306 5.2 13.9 0.00 0.13 0.01 41 1009.9
20260507154539 57 325 5.2 12.2 0.00 0.13 0.01 41 1010.0
20260507153519 57 292 4.3 11.3 0.00 0.14 0.01 41 1010.1
20260507152921 57 270 4.3 9.6 0.00 0.16 0.01 40 1010.2
20260507151537 57 318 4.3 10.4 0.00 0.17 0.01 43 1010.2
20260507150819 57 315 4.3 10.4 0.00 0.17 0.01 41 1010.3
20260507145517 56 334 4.3 13.0 0.00 0.18 0.01 42 1010.3
20260507144536 56 304 2.6 13.0 0.00 0.18 0.01 43 1010.3
20260507143517 55 323 5.2 16.5 0.00 0.19 0.01 43 1010.3
20260507142517 55 322 4.3 11.3 0.00 0.20 0.01 44 1010.4
20260507141516 54 312 5.2 15.6 0.00 0.21 0.01 44 1010.5
20260507140844 53 338 4.3 5.2 0.01 0.23 0.01 48 1010.5
20260507135515 52 326 6.1 13.0 0.01 0.24 0.01 47 1010.6
20260507134840 53 315 2.6 2.6 0.01 0.24 0.01 52 1010.7
20260507134016 53 322 2.6 9.6 0.01 0.24 0.01 51 1010.7
20260507133017 52 337 4.3 9.6 0.01 0.25 0.01 52 1010.9